JOE676 LGAV-LGIR

Flight info

Callsign JOE676
Flight time 0h 36m
Altitude 25000
Route KEA UL607 GIVIS T514 XAVIS
Aircraft A20N/M-SDE2E3FGHIRWXY/LB1

Departure

Time 2026-05-06 07:56
Airport Athens Eleftherios Venizelos International Airport (LGAV)

Arrival

Time 2026-05-06 08:33
Airport Heraklion International Nikos Kazantzakis Airport (LGIR)
Time Latitude Longitude Altitude Speed Heading
2026-05-06 07:19 37.93109 23.94184 288 ft 0 kts 31°
2026-05-06 07:43 37.93108 23.94183 286 ft 7 kts 31°
2026-05-06 07:43 37.93111 23.94185 286 ft 0 kts 31°
2026-05-06 07:43 37.93107 23.94182 286 ft 8 kts 31°
2026-05-06 07:44 37.93103 23.94180 286 ft 0 kts 31°
2026-05-06 07:44 37.93102 23.94179 286 ft 2 kts 31°
2026-05-06 07:44 37.93072 23.94126 287 ft 10 kts 87°
2026-05-06 07:44 37.93069 23.94090 289 ft 3 kts 58°
2026-05-06 07:45 37.93039 23.94106 286 ft 9 kts 158°
2026-05-06 07:45 37.93031 23.94098 286 ft 4 kts 135°
2026-05-06 07:45 37.93040 23.94091 286 ft 0 kts 122°
2026-05-06 07:52 37.93024 23.94121 287 ft 13 kts 125°
2026-05-06 07:52 37.92896 23.94335 291 ft 34 kts 126°
2026-05-06 07:52 37.92770 23.94442 290 ft 20 kts 213°
2026-05-06 07:53 37.92657 23.94335 294 ft 21 kts 217°
2026-05-06 07:53 37.92533 23.94216 295 ft 23 kts 217°
2026-05-06 07:53 37.92437 23.94165 297 ft 0 kts 159°
2026-05-06 07:53 37.92436 23.94166 297 ft 1 kts 158°
2026-05-06 07:54 37.92419 23.94188 297 ft 6 kts 127°
2026-05-06 07:54 37.92414 23.94246 292 ft 8 kts 89°
2026-05-06 07:54 37.92414 23.94338 292 ft 12 kts 89°
2026-05-06 07:54 37.92461 23.94431 294 ft 12 kts 39°
2026-05-06 07:55 37.92468 23.94438 295 ft 0 kts 38°
2026-05-06 07:56 37.92588 23.94551 292 ft 63 kts 36°
2026-05-06 07:56 37.93162 23.95097 287 ft 139 kts 37°
2026-05-06 07:56 37.94050 23.95935 638 ft 168 kts 37°
2026-05-06 07:56 37.95019 23.96872 1341 ft 184 kts 38°
2026-05-06 07:57 37.96097 23.97913 1984 ft 207 kts 37°
2026-05-06 07:57 37.97315 23.99084 2621 ft 232 kts 36°
2026-05-06 07:57 37.98659 24.00375 3456 ft 252 kts 36°
2026-05-06 07:57 38.00102 24.01759 4408 ft 266 kts 36°
2026-05-06 07:58 38.01585 24.03182 5530 ft 269 kts 36°
2026-05-06 07:58 38.03087 24.04625 6655 ft 273 kts 36°
2026-05-06 07:58 38.04607 24.06089 7717 ft 276 kts 36°
2026-05-06 07:58 38.06147 24.07573 8847 ft 277 kts 35°
2026-05-06 07:59 38.07675 24.09074 10014 ft 281 kts 40°
2026-05-06 07:59 38.08834 24.11104 10909 ft 292 kts 65°
2026-05-06 07:59 38.09214 24.13671 11821 ft 303 kts 90°
2026-05-06 07:59 38.08781 24.16325 12741 ft 312 kts 107°
2026-05-06 08:00 38.07870 24.18852 13679 ft 320 kts 125°
2026-05-06 08:00 38.06246 24.20809 14491 ft 328 kts 149°
2026-05-06 08:00 38.04111 24.21845 15264 ft 333 kts 171°
2026-05-06 08:00 38.01826 24.22483 16044 ft 341 kts 161°
2026-05-06 08:01 37.99649 24.23641 16837 ft 348 kts 157°
2026-05-06 08:01 37.97433 24.24952 17631 ft 356 kts 156°
2026-05-06 08:01 37.95126 24.26330 17974 ft 378 kts 156°
2026-05-06 08:01 37.92667 24.27776 18227 ft 401 kts 156°
2026-05-06 08:02 37.90055 24.29285 18494 ft 422 kts 157°
2026-05-06 08:02 37.87353 24.30833 18946 ft 429 kts 157°
2026-05-06 08:02 37.84616 24.32393 19553 ft 432 kts 157°
2026-05-06 08:02 37.81861 24.33962 20141 ft 436 kts 157°
2026-05-06 08:03 37.79083 24.35541 20722 ft 440 kts 157°
2026-05-06 08:03 37.76277 24.37135 21301 ft 444 kts 157°
2026-05-06 08:03 37.73445 24.38742 21890 ft 448 kts 157°
2026-05-06 08:03 37.70590 24.40360 22435 ft 452 kts 157°
2026-05-06 08:04 37.67708 24.41993 23010 ft 456 kts 157°
2026-05-06 08:04 37.64800 24.43639 23550 ft 460 kts 158°
2026-05-06 08:04 37.61871 24.45295 24014 ft 464 kts 158°
2026-05-06 08:04 37.58904 24.46973 24419 ft 469 kts 158°
2026-05-06 08:05 37.55919 24.48658 24861 ft 472 kts 158°
2026-05-06 08:05 37.52916 24.50351 25044 ft 474 kts 158°
2026-05-06 08:05 37.49850 24.51846 25090 ft 471 kts 163°
2026-05-06 08:05 37.46794 24.53184 25092 ft 459 kts 163°
2026-05-06 08:06 37.43797 24.54488 25092 ft 456 kts 163°
2026-05-06 08:06 37.40788 24.55795 25094 ft 459 kts 163°
2026-05-06 08:06 37.37772 24.57107 25094 ft 459 kts 163°
2026-05-06 08:06 37.34754 24.58423 25095 ft 458 kts 163°
2026-05-06 08:07 37.31743 24.59736 25096 ft 459 kts 163°
2026-05-06 08:07 37.28728 24.61049 25096 ft 459 kts 163°
2026-05-06 08:07 37.25711 24.62362 25097 ft 459 kts 163°
2026-05-06 08:07 37.22695 24.63674 25097 ft 459 kts 163°
2026-05-06 08:08 37.19680 24.64984 25099 ft 459 kts 163°
2026-05-06 08:08 37.16664 24.66294 25102 ft 458 kts 163°
2026-05-06 08:08 37.13647 24.67603 25102 ft 459 kts 163°
2026-05-06 08:08 37.10643 24.68906 25088 ft 456 kts 163°
2026-05-06 08:09 37.07657 24.70200 24826 ft 453 kts 163°
2026-05-06 08:09 37.04725 24.71470 24388 ft 450 kts 163°
2026-05-06 08:09 37.01777 24.72746 23884 ft 447 kts 164°
2026-05-06 08:09 36.98817 24.74026 23300 ft 443 kts 164°
2026-05-06 08:10 36.95954 24.75262 22719 ft 439 kts 163°
2026-05-06 08:10 36.93081 24.76500 22148 ft 434 kts 163°
2026-05-06 08:10 36.90238 24.77725 21568 ft 430 kts 163°
2026-05-06 08:10 36.87424 24.78937 21047 ft 425 kts 163°
2026-05-06 08:11 36.84698 24.80110 20527 ft 421 kts 163°
2026-05-06 08:11 36.81940 24.81295 19987 ft 417 kts 163°
2026-05-06 08:11 36.79210 24.82468 19456 ft 414 kts 163°
2026-05-06 08:11 36.76495 24.83633 18936 ft 410 kts 163°
2026-05-06 08:12 36.73805 24.84787 18415 ft 407 kts 163°
2026-05-06 08:12 36.71131 24.85932 17848 ft 404 kts 163°
2026-05-06 08:12 36.68491 24.87063 17301 ft 400 kts 163°
2026-05-06 08:12 36.65868 24.88186 16761 ft 396 kts 163°
2026-05-06 08:13 36.63273 24.89296 16235 ft 393 kts 163°
2026-05-06 08:13 36.60700 24.90396 15678 ft 388 kts 162°
2026-05-06 08:13 36.58158 24.91481 14908 ft 384 kts 163°
2026-05-06 08:13 36.55648 24.92552 14181 ft 380 kts 163°
2026-05-06 08:14 36.53164 24.93612 13423 ft 375 kts 162°
2026-05-06 08:14 36.50707 24.94658 12687 ft 369 kts 162°
2026-05-06 08:14 36.48295 24.95685 11965 ft 364 kts 162°
2026-05-06 08:14 36.45915 24.96697 11258 ft 359 kts 162°
2026-05-06 08:15 36.43601 24.97680 10578 ft 354 kts 162°
2026-05-06 08:15 36.41254 24.98676 9875 ft 349 kts 161°
2026-05-06 08:15 36.39000 24.99632 9168 ft 344 kts 161°
2026-05-06 08:15 36.36754 25.00585 8475 ft 339 kts 161°
2026-05-06 08:16 36.34531 25.01527 7740 ft 336 kts 161°
2026-05-06 08:16 36.32339 25.02456 7305 ft 332 kts 161°
2026-05-06 08:16 36.30139 25.03386 7153 ft 334 kts 161°
2026-05-06 08:16 36.27941 25.04315 7115 ft 334 kts 161°
2026-05-06 08:17 36.26456 25.04944 7114 ft 334 kts 161°
2026-05-06 08:17 36.24256 25.05875 7114 ft 334 kts 161°
2026-05-06 08:17 36.22085 25.06794 7114 ft 334 kts 161°
2026-05-06 08:17 36.19886 25.07725 7114 ft 334 kts 161°
2026-05-06 08:18 36.17688 25.08655 7111 ft 334 kts 161°
2026-05-06 08:18 36.15489 25.09584 7111 ft 334 kts 161°
2026-05-06 08:18 36.13253 25.10528 7111 ft 335 kts 160°
2026-05-06 08:18 36.11078 25.11445 7111 ft 333 kts 160°
2026-05-06 08:19 36.08879 25.12373 7112 ft 334 kts 160°
2026-05-06 08:19 36.06683 25.13299 7112 ft 333 kts 160°
2026-05-06 08:19 36.04486 25.14224 7111 ft 333 kts 160°
2026-05-06 08:19 36.02292 25.15147 7113 ft 333 kts 160°
2026-05-06 08:20 36.00095 25.16072 7111 ft 333 kts 160°
2026-05-06 08:20 35.97901 25.16995 7111 ft 333 kts 160°
2026-05-06 08:20 35.95705 25.17918 7111 ft 334 kts 160°
2026-05-06 08:20 35.93504 25.18842 7111 ft 334 kts 160°
2026-05-06 08:21 35.91310 25.19763 7110 ft 333 kts 160°
2026-05-06 08:21 35.89109 25.20686 7108 ft 333 kts 160°
2026-05-06 08:21 35.86929 25.21599 6960 ft 330 kts 160°
2026-05-06 08:21 35.84765 25.22505 6590 ft 327 kts 160°
2026-05-06 08:22 35.82608 25.23409 6123 ft 325 kts 160°
2026-05-06 08:22 35.80477 25.24303 5629 ft 323 kts 160°
2026-05-06 08:22 35.78355 25.25193 5138 ft 321 kts 161°
2026-05-06 08:22 35.76250 25.26076 4665 ft 319 kts 161°
2026-05-06 08:23 35.74154 25.26952 4178 ft 317 kts 161°
2026-05-06 08:23 35.72074 25.27820 3707 ft 315 kts 161°
2026-05-06 08:23 35.70032 25.28671 3252 ft 312 kts 161°
2026-05-06 08:23 35.67991 25.29521 3042 ft 310 kts 161°
2026-05-06 08:24 35.65938 25.30375 2986 ft 311 kts 161°
2026-05-06 08:24 35.63886 25.31230 2983 ft 311 kts 161°
2026-05-06 08:24 35.61836 25.32083 2979 ft 311 kts 161°
2026-05-06 08:24 35.59784 25.32937 2979 ft 311 kts 161°
2026-05-06 08:25 35.57735 25.33790 2977 ft 311 kts 162°
2026-05-06 08:25 35.55683 25.34642 2977 ft 311 kts 162°
2026-05-06 08:25 35.53629 25.35494 2977 ft 311 kts 162°
2026-05-06 08:25 35.51572 25.36348 2977 ft 312 kts 162°
2026-05-06 08:26 35.49517 25.37201 2977 ft 311 kts 162°
2026-05-06 08:26 35.47464 25.38052 2977 ft 312 kts 161°
2026-05-06 08:26 35.45413 25.38919 2976 ft 312 kts 159°
2026-05-06 08:26 35.43487 25.40079 2979 ft 302 kts 150°
2026-05-06 08:27 35.41714 25.41311 2974 ft 284 kts 150°
2026-05-06 08:27 35.40046 25.42463 2974 ft 267 kts 151°
2026-05-06 08:27 35.38390 25.43293 2974 ft 249 kts 172°
2026-05-06 08:27 35.36743 25.43179 2976 ft 230 kts 200°
2026-05-06 08:28 35.35443 25.42236 2975 ft 209 kts 228°
2026-05-06 08:28 35.34683 25.40860 2967 ft 190 kts 248°
2026-05-06 08:28 35.34140 25.39411 2774 ft 186 kts 247°
2026-05-06 08:28 35.33589 25.37965 2526 ft 190 kts 247°
2026-05-06 08:29 35.33033 25.36500 2466 ft 189 kts 250°
2026-05-06 08:29 35.32793 25.34969 2417 ft 178 kts 273°
2026-05-06 08:29 35.32899 25.33522 2375 ft 166 kts 277°
2026-05-06 08:29 35.32999 25.32139 2240 ft 164 kts 276°
2026-05-06 08:30 35.33095 25.30764 2181 ft 158 kts 276°
2026-05-06 08:30 35.33184 25.29460 2033 ft 151 kts 276°
2026-05-06 08:30 35.33280 25.28195 1842 ft 148 kts 277°
2026-05-06 08:30 35.33370 25.26926 1516 ft 149 kts 276°
2026-05-06 08:31 35.33457 25.25662 1072 ft 150 kts 276°
2026-05-06 08:31 35.33528 25.24397 779 ft 141 kts 274°
2026-05-06 08:31 35.33588 25.23209 715 ft 150 kts 281°
2026-05-06 08:31 35.33694 25.21945 685 ft 152 kts 275°
2026-05-06 08:32 35.33797 25.20651 487 ft 151 kts 276°
2026-05-06 08:32 35.33876 25.19397 214 ft 145 kts 276°
2026-05-06 08:32 35.33959 25.18223 106 ft 129 kts 276°
2026-05-06 08:32 35.34024 25.17298 84 ft 59 kts 275°
2026-05-06 08:33 35.34053 25.16891 67 ft 30 kts 270°
2026-05-06 08:33 35.34027 25.16866 73 ft 10 kts 157°
2026-05-06 08:33 35.33964 25.16962 70 ft 18 kts 120°
2026-05-06 08:33 35.33936 25.17133 79 ft 22 kts 94°
2026-05-06 08:34 35.33925 25.17313 86 ft 21 kts 95°
2026-05-06 08:34 35.33858 25.17474 87 ft 6 kts 277°
2026-05-06 08:34 35.33861 25.17427 85 ft 0 kts 272°
2026-05-06 08:35 35.33861 25.17422 85 ft 0 kts 272°